Weather History for Austin Bergstrom, TX

Change the Weather History Date:

Wednesday, November 27, 2013

  Actual Average Record
Temperature  
Mean Temperature 41 °F 54 °F  
Max Temperature 52 °F 67 °F 87 °F (2005)
Min Temperature 29 °F 41 °F 22 °F (2010)
Degree Days  
Heating Degree Days 24 11  
Month to date heating degree days 236 198  
Since 1 July heating degree days 272 249  
Cooling Degree Days 0 1  
Month to date cooling degree days 37 37  
Year to date cooling degree days 3040 2740  
Moisture  
Dew Point 24 °F    
Average Humidity 60    
Maximum Humidity 92    
Minimum Humidity 27    
Precipitation  
Precipitation 0.00 in 0.09 in 1.62 in (1985)
Month to date precipitation 2.16 2.69  
Year to date precipitation 36.18 29.64  
Snow  
Snow 0.00 in - - ()
Month to date snowfall 0.0  
Since 1 July snowfall 0.0  
Since 1 September snowfall 0.0  
Snow Depth 0.00 in    
Sea Level Pressure  
Sea Level Pressure 30.43 in    
Wind  
Wind Speed 8 mph (North)    
Max Wind Speed 18 mph    
Max Gust Speed 22 mph    
Visibility 10 miles    
Events      
T = Trace of Precipitation, MM = Missing Value Source: NWS Daily Summary

Daily Weather History Graph

Daily Weather History Graph

Search for Another Location

Airport:

Trip Planner

Search our weather history database for the weather conditions in past years. The results will help you decide how hot, cold, wet, or windy it might be!

Date:

Astronomy

Nov. 27, 2013 Rise Set
Actual Time 7:06 AM CST 5:30 PM CST
Civil Twilight 6:40 AM CST 5:56 PM CST
Nautical Twilight 6:10 AM CST 6:25 PM CST
Astronomical Twilight 5:42 AM CST 6:54 PM CST
Moon 1:32 AM CST (11/27) 1:47 PM CST (11/27)
Length of Visible Light 11h 15m
Length of Day
10h 24m
Waning Crescent, 31% of the Moon is Illuminated
Nov 27
Waning Crescent
Dec 2
New
Dec 9
First Quarter
Dec 17
Full
Dec 25
Last Quarter

Hourly Weather History & Observations

Time (CST) Temp. Windchill Dew Point Humidity Pressure Visibility Wind Dir Wind Speed Gust Speed Precip Events Conditions
12:53 AM 42.1 °F 36.6 °F 27.0 °F 55% 30.38 in 10.0 mi NNW 9.2 mph - N/A   Clear
1:53 AM 39.9 °F 33.9 °F 27.0 °F 60% 30.38 in 10.0 mi North 9.2 mph - N/A   Clear
2:53 AM 39.9 °F 32.9 °F 27.0 °F 60% 30.39 in 10.0 mi North 11.5 mph - N/A   Clear
3:53 AM 37.9 °F 29.2 °F 27.0 °F 65% 30.40 in 10.0 mi North 15.0 mph - N/A   Clear
4:53 AM 37.0 °F 27.7 °F 26.1 °F 65% 30.41 in 10.0 mi North 16.1 mph - N/A   Clear
5:53 AM 35.1 °F 26.9 °F 25.0 °F 67% 30.45 in 10.0 mi North 11.5 mph - N/A   Clear
6:53 AM 34.0 °F 27.2 °F 25.0 °F 70% 30.47 in 10.0 mi NNW 8.1 mph - N/A   Clear
7:53 AM 36.0 °F 30.3 °F 25.0 °F 64% 30.50 in 10.0 mi NNW 6.9 mph - N/A   Clear
8:53 AM 39.0 °F 31.8 °F 24.1 °F 55% 30.50 in 10.0 mi NNW 11.5 mph - N/A   Clear
9:53 AM 42.1 °F 35.7 °F 21.9 °F 45% 30.51 in 10.0 mi North 11.5 mph - N/A   Clear
10:53 AM 44.1 °F 37.1 °F 19.9 °F 38% 30.49 in 10.0 mi North 15.0 mph - N/A   Clear
11:53 AM 46.9 °F - 19.9 °F 34% 30.46 in 10.0 mi NNE 11.5 mph - N/A   Clear
12:53 PM 48.9 °F - 19.9 °F 32% 30.43 in 10.0 mi North 8.1 mph - N/A   Clear
1:53 PM 50.0 °F - 21.0 °F 32% 30.40 in 10.0 mi North 10.4 mph - N/A   Clear
2:53 PM 51.1 °F - 19.9 °F 29% 30.38 in 10.0 mi North 9.2 mph 21.9 mph N/A   Clear
3:53 PM 50.0 °F - 18.0 °F 28% 30.37 in 10.0 mi North 8.1 mph - N/A   Clear
4:53 PM 48.9 °F - 19.0 °F 31% 30.38 in 10.0 mi NNE 6.9 mph - N/A   Partly Cloudy
5:53 PM 42.1 °F - 23.0 °F 47% 30.40 in 10.0 mi Calm Calm - N/A   Scattered Clouds
6:53 PM 35.1 °F - 26.1 °F 70% 30.41 in 10.0 mi Calm Calm - N/A   Scattered Clouds
7:53 PM 33.1 °F - 27.0 °F 78% 30.41 in 10.0 mi Calm Calm - N/A   Scattered Clouds
8:53 PM 32.0 °F 27.5 °F 28.0 °F 85% 30.42 in 10.0 mi WSW 4.6 mph - N/A   Clear
9:53 PM 30.9 °F - 27.0 °F 85% 30.43 in 10.0 mi Calm Calm - N/A   Scattered Clouds
10:53 PM 30.9 °F - 28.0 °F 89% 30.43 in 10.0 mi Calm Calm - N/A   Mostly Cloudy
11:53 PM 30.9 °F 27.5 °F 28.0 °F 89% 30.42 in 10.0 mi WSW 3.5 mph - N/A   Scattered Clouds